When you browse on this site, cookies collect data to enhance your experience and personalize the content and advertising you see.
Visit our Privacy Policy to learn more. By continuing to use the site, you agree to this use of cookies and data.
  • Em Portugal
  • Lista de países
  • Para 7 dias
  • Temperatura da água
  • Mapas de satélite
  • Mapa do tempo
  • Widgets de tempo
  • user-avatar
    Iniciar Sessão

    Previsão horária em Varna

    Hoje, 21 Janeiro, Segunda-feira

    Tempo Temperatura Precipitação Vento Pressão Humidade
    00:00 +5°C° 0 mm 3 m/s 745 mmHg 94%
    01:00 +5°C° 0 mm 3 m/s 745 mmHg 95%
    02:00 +4°C° 0 mm 3 m/s 745 mmHg 94%
    03:00 +3°C° 0 mm 4 m/s 745 mmHg 93%
    04:00 +1°C° 0 mm 5 m/s 745 mmHg 91%
    05:00 +1°C° 0 mm 6 m/s 746 mmHg 89%
    06:00 -1°C° 0 mm 6 m/s 746 mmHg 88%
    07:00 -1°C° 0 mm 6 m/s 746 mmHg 88%
    08:00 0°C° 0 mm 5 m/s 747 mmHg 87%
    09:00 -1°C° 0 mm 6 m/s 747 mmHg 83%
    10:00 +1°C° 0 mm 6 m/s 748 mmHg 79%
    11:00 +2°C° 0 mm 6 m/s 748 mmHg 74%
    12:00 +2°C° 0 mm 6 m/s 748 mmHg 73%
    13:00 +2°C° 0 mm 5 m/s 748 mmHg 71%
    14:00 +4°C° 0 mm 4 m/s 749 mmHg 69%
    15:00 +3°C° 0 mm 4 m/s 749 mmHg 70%
    16:00 +1°C° 0 mm 4 m/s 749 mmHg 72%
    17:00 +2°C° 0 mm 3 m/s 750 mmHg 74%
    18:00 +1°C° 0 mm 3 m/s 750 mmHg 77%
    19:00 0°C° 0 mm 3 m/s 750 mmHg 80%
    20:00 0°C° 0 mm 3 m/s 750 mmHg 82%
    21:00 -1°C° 0 mm 3 m/s 750 mmHg 83%
    22:00 -1°C° 0 mm 3 m/s 750 mmHg 84%
    23:00 -1°C° 0 mm 3 m/s 751 mmHg 84%

    Amanhã, 22 Janeiro, Terça-feira

    Tempo Temperatura Precipitação Vento Pressão Humidade
    00:00 -1°C° 0 mm 2 m/s 751 mmHg 85%
    01:00 -1°C° 0 mm 2 m/s 751 mmHg 85%
    02:00 -1°C° 0 mm 2 m/s 750 mmHg 86%
    03:00 -1°C° 0 mm 2 m/s 750 mmHg 87%
    04:00 -1°C° 0 mm 2 m/s 750 mmHg 88%
    05:00 -1°C° 0 mm 2 m/s 750 mmHg 88%
    06:00 -1°C° 0 mm 2 m/s 750 mmHg 88%
    07:00 0°C° 0 mm 3 m/s 750 mmHg 88%
    08:00 0°C° 0 mm 3 m/s 749 mmHg 88%
    09:00 +1°C° 0.1 mm 3 m/s 749 mmHg 87%
    10:00 +1°C° 0.1 mm 3 m/s 749 mmHg 85%
    11:00 +1°C° 0.1 mm 4 m/s 749 mmHg 84%
    12:00 +1°C° 0.2 mm 4 m/s 748 mmHg 84%
    13:00 +1°C° 0.2 mm 4 m/s 748 mmHg 84%
    14:00 +3°C° 0.2 mm 4 m/s 747 mmHg 84%
    15:00 +3°C° 0.1 mm 4 m/s 746 mmHg 87%
    16:00 +2°C° 0.1 mm 5 m/s 746 mmHg 89%
    17:00 +2°C° 0.1 mm 5 m/s 745 mmHg 91%
    18:00 +2°C° 0.1 mm 5 m/s 745 mmHg 92%
    19:00 +2°C° 0.1 mm 5 m/s 745 mmHg 93%
    20:00 +3°C° 0.1 mm 5 m/s 744 mmHg 94%
    21:00 +3°C° 0.1 mm 5 m/s 744 mmHg 94%
    22:00 +3°C° 0.1 mm 6 m/s 744 mmHg 94%
    23:00 +3°C° 0.1 mm 6 m/s 743 mmHg 94%

    Depois de amanhã, 23 Janeiro, Quarta-feira

    Tempo Temperatura Precipitação Vento Pressão Humidade
    00:00 +3°C° 0 mm 6 m/s 742 mmHg 94%
    01:00 +4°C° 0 mm 6 m/s 742 mmHg 95%
    02:00 +5°C° 0 mm 5 m/s 741 mmHg 95%
    03:00 +4°C° 0.7 mm 6 m/s 740 mmHg 96%
    04:00 +4°C° 0.7 mm 6 m/s 740 mmHg 96%
    05:00 +4°C° 0.7 mm 6 m/s 739 mmHg 97%
    06:00 +5°C° 2.4 mm 6 m/s 739 mmHg 96%
    07:00 +5°C° 2.4 mm 6 m/s 738 mmHg 95%
    08:00 +5°C° 2.4 mm 7 m/s 738 mmHg 93%
    09:00 +6°C° 0 mm 7 m/s 738 mmHg 89%
    10:00 +8°C° 0 mm 7 m/s 738 mmHg 85%
    11:00 +9°C° 0 mm 8 m/s 738 mmHg 81%
    12:00 +10°C° 0 mm 8 m/s 738 mmHg 77%
    13:00 +11°C° 0 mm 7 m/s 738 mmHg 72%
    14:00 +12°C° 0 mm 7 m/s 737 mmHg 67%
    15:00 +11°C° 0 mm 6 m/s 737 mmHg 71%
    16:00 +10°C° 0 mm 6 m/s 737 mmHg 75%
    17:00 +9°C° 0 mm 5 m/s 737 mmHg 78%
    18:00 +9°C° 0 mm 5 m/s 738 mmHg 81%
    19:00 +8°C° 0 mm 5 m/s 738 mmHg 84%
    20:00 +8°C° 0 mm 5 m/s 738 mmHg 87%
    21:00 +8°C° 0 mm 5 m/s 738 mmHg 88%
    22:00 +8°C° 0 mm 5 m/s 738 mmHg 89%
    23:00 +8°C° 0 mm 6 m/s 738 mmHg 90%

    24 Janeiro, Quinta-feira

    Tempo Temperatura Precipitação Vento Pressão Humidade
    00:00 +7°C° 0 mm 5 m/s 738 mmHg 91%
    01:00 +7°C° 0 mm 5 m/s 738 mmHg 92%
    02:00 +7°C° 0 mm 5 m/s 738 mmHg 93%
    03:00 +7°C° 0.8 mm 4 m/s 738 mmHg 94%
    04:00 +7°C° 0.8 mm 4 m/s 737 mmHg 96%
    05:00 +7°C° 0.8 mm 4 m/s 737 mmHg 97%
    06:00 +7°C° 0.2 mm 4 m/s 737 mmHg 97%
    07:00 +7°C° 0.2 mm 4 m/s 737 mmHg 96%
    08:00 +7°C° 0.2 mm 4 m/s 737 mmHg 95%
    09:00 +7°C° 0 mm 5 m/s 737 mmHg 90%
    10:00 +8°C° 0 mm 5 m/s 737 mmHg 85%
    11:00 +9°C° 0 mm 5 m/s 737 mmHg 80%
    12:00 +9°C° 0 mm 6 m/s 737 mmHg 78%
    13:00 +9°C° 0 mm 6 m/s 736 mmHg 76%
    14:00 +9°C° 0 mm 7 m/s 736 mmHg 73%
    15:00 +8°C° 0 mm 7 m/s 736 mmHg 79%
    16:00 +6°C° 0 mm 7 m/s 736 mmHg 85%
    17:00 +6°C° 0 mm 7 m/s 736 mmHg 90%
    18:00 +5°C° 0 mm 8 m/s 737 mmHg 90%
    19:00 +5°C° 0 mm 9 m/s 737 mmHg 90%
    20:00 +5°C° 0 mm 9 m/s 738 mmHg 90%
    21:00 +5°C° 0.1 mm 9 m/s 738 mmHg 90%
    22:00 +3°C° 0.1 mm 10 m/s 738 mmHg 90%
    23:00 +3°C° 0.1 mm 10 m/s 739 mmHg 90%

    25 Janeiro, Sexta-feira

    Tempo Temperatura Precipitação Vento Pressão Humidade
    00:00 +3°C° 0.1 mm 9 m/s 739 mmHg 90%
    01:00 +3°C° 0.1 mm 9 m/s 739 mmHg 90%
    02:00 +3°C° 0.1 mm 9 m/s 739 mmHg 90%
    03:00 +3°C° 0.1 mm 9 m/s 739 mmHg 90%
    04:00 +2°C° 0.1 mm 9 m/s 739 mmHg 90%
    05:00 +1°C° 0.1 mm 9 m/s 739 mmHg 90%
    06:00 +1°C° 0.3 mm 9 m/s 739 mmHg 90%
    07:00 +1°C° 0.3 mm 9 m/s 740 mmHg 90%
    08:00 +1°C° 0.3 mm 8 m/s 740 mmHg 90%
    09:00 +1°C° 0.1 mm 8 m/s 740 mmHg 90%
    10:00 +2°C° 0.1 mm 8 m/s 740 mmHg 90%
    11:00 +2°C° 0.1 mm 8 m/s 741 mmHg 90%
    12:00 +2°C° 0.2 mm 8 m/s 740 mmHg 91%
    13:00 +2°C° 0.2 mm 8 m/s 740 mmHg 91%
    14:00 +2°C° 0.2 mm 8 m/s 740 mmHg 91%
    15:00 +2°C° 0.5 mm 8 m/s 740 mmHg 93%
    16:00 +2°C° 0.5 mm 8 m/s 740 mmHg 94%
    17:00 +2°C° 0.5 mm 8 m/s 739 mmHg 95%
    18:00 +3°C° 0.4 mm 7 m/s 739 mmHg 95%
    19:00 +3°C° 0.4 mm 7 m/s 739 mmHg 96%
    20:00 +4°C° 0.4 mm 7 m/s 739 mmHg 96%
    21:00 +4°C° 0.2 mm 7 m/s 739 mmHg 96%
    22:00 +4°C° 0.2 mm 6 m/s 739 mmHg 97%
    23:00 +5°C° 0.2 mm 6 m/s 739 mmHg 97%

    26 Janeiro, Sábado

    Tempo Temperatura Precipitação Vento Pressão Humidade
    00:00 +5°C° 0.6 mm 6 m/s 738 mmHg 97%
    01:00 +5°C° 0.6 mm 6 m/s 738 mmHg 97%
    02:00 +5°C° 0.6 mm 7 m/s 737 mmHg 97%
    03:00 +5°C° 0.9 mm 7 m/s 737 mmHg 97%
    04:00 +5°C° 0.9 mm 6 m/s 737 mmHg 96%
    05:00 +5°C° 0.9 mm 6 m/s 737 mmHg 96%
    06:00 +6°C° 0.3 mm 5 m/s 737 mmHg 96%
    07:00 +6°C° 0.3 mm 4 m/s 737 mmHg 96%
    08:00 +6°C° 0.3 mm 4 m/s 737 mmHg 96%
    09:00 +7°C° 0.2 mm 3 m/s 738 mmHg 95%
    10:00 +8°C° 0.2 mm 3 m/s 738 mmHg 94%
    11:00 +8°C° 0.2 mm 2 m/s 738 mmHg 93%
    12:00 +7°C° 0.1 mm 3 m/s 738 mmHg 92%
    13:00 +5°C° 0.1 mm 3 m/s 738 mmHg 92%
    14:00 +4°C° 0.1 mm 4 m/s 738 mmHg 91%
    15:00 +2°C° 0.2 mm 5 m/s 738 mmHg 90%
    16:00 +1°C° 0.2 mm 5 m/s 738 mmHg 89%
    17:00 -1°C° 0.2 mm 6 m/s 739 mmHg 88%
    18:00 -1°C° 0.4 mm 6 m/s 739 mmHg 88%
    19:00 -1°C° 0.4 mm 6 m/s 739 mmHg 88%
    20:00 -2°C° 0.4 mm 6 m/s 739 mmHg 88%
    21:00 -2°C° 0.2 mm 6 m/s 739 mmHg 88%
    22:00 -2°C° 0.2 mm 6 m/s 739 mmHg 88%
    23:00 -2°C° 0.2 mm 6 m/s 739 mmHg 88%
    Mostrar mais